Time,TemperatureF,DewpointF,PressureIn,WindDirection,WindDirectionDegrees,WindSpeedMPH,WindSpeedGustMPH,Humidity,HourlyPrecipIn,Conditions,Clouds,dailyrainin,SoftwareType,DateUTC
2013-05-22 00:01:00,68.2,65.1,29.94,ENE,68,0.0,1.0,90,0.00,,,0.01,meteohub,2013-05-22 04:01:00,
2013-05-22 00:06:00,68.0,65.3,29.95,North,358,0.0,1.0,91,0.00,,,0.00,meteohub,2013-05-22 04:06:00,
2013-05-22 00:11:00,67.8,65.1,29.94,North,357,0.0,2.0,91,0.00,,,0.00,meteohub,2013-05-22 04:11:00,
2013-05-22 00:16:00,67.6,64.9,29.94,North,357,0.0,2.0,91,0.00,,,0.00,meteohub,2013-05-22 04:16:00,
2013-05-22 00:21:00,67.6,64.9,29.94,NNW,336,0.0,2.0,91,0.00,,,0.00,meteohub,2013-05-22 04:21:00,
2013-05-22 00:26:00,67.6,64.9,29.94,NNW,336,0.0,1.0,91,0.00,,,0.00,meteohub,2013-05-22 04:26:00,
2013-05-22 00:31:00,67.6,64.6,29.94,NNW,336,1.0,1.0,90,0.00,,,0.00,meteohub,2013-05-22 04:31:00,
2013-05-22 00:36:00,67.6,64.6,29.94,NNW,336,1.0,1.0,90,0.00,,,0.00,meteohub,2013-05-22 04:36:00,
2013-05-22 00:41:00,67.6,64.2,29.94,North,4,0.0,1.0,89,0.00,,,0.00,meteohub,2013-05-22 04:41:00,
2013-05-22 00:46:00,67.6,64.2,29.94,North,354,0.0,1.0,89,0.00,,,0.00,meteohub,2013-05-22 04:46:00,
2013-05-22 00:51:00,67.6,64.2,29.94,WNW,283,0.0,1.0,89,0.00,,,0.00,meteohub,2013-05-22 04:51:00,
2013-05-22 00:56:00,67.5,64.0,29.94,WNW,293,1.0,1.0,89,0.00,,,0.00,meteohub,2013-05-22 04:56:00,
2013-05-22 01:01:00,67.5,64.4,29.94,WNW,295,0.0,1.0,90,0.00,,,0.00,meteohub,2013-05-22 05:01:00,
2013-05-22 01:06:00,67.3,64.2,29.94,WNW,295,0.0,1.0,90,0.00,,,0.00,meteohub,2013-05-22 05:06:00,
2013-05-22 01:11:00,67.3,64.2,29.93,WNW,295,0.0,1.0,90,0.00,,,0.00,meteohub,2013-05-22 05:11:00,
2013-05-22 01:16:00,67.1,64.0,29.93,WNW,295,0.0,1.0,90,0.00,,,0.00,meteohub,2013-05-22 05:16:00,
2013-05-22 01:21:00,67.1,64.0,29.93,WNW,295,1.0,1.0,90,0.00,,,0.00,meteohub,2013-05-22 05:21:00,
2013-05-22 01:27:00,67.3,64.2,29.93,WNW,295,0.0,1.0,90,0.00,,,0.00,meteohub,2013-05-22 05:27:00,
2013-05-22 01:32:00,67.3,64.2,29.93,WNW,295,0.0,1.0,90,0.00,,,0.00,meteohub,2013-05-22 05:32:00,
2013-05-22 01:37:00,67.3,64.2,29.93,WNW,295,0.0,1.0,90,0.00,,,0.00,meteohub,2013-05-22 05:37:00,
2013-05-22 01:42:00,67.1,64.0,29.93,WNW,295,0.0,1.0,90,0.00,,,0.00,meteohub,2013-05-22 05:42:00,
2013-05-22 01:47:00,67.1,64.4,29.93,WNW,295,0.0,1.0,91,0.00,,,0.00,meteohub,2013-05-22 05:47:00,
2013-05-22 01:52:00,67.1,64.4,29.93,WNW,295,0.0,1.0,91,0.00,,,0.00,meteohub,2013-05-22 05:52:00,
2013-05-22 01:57:00,66.9,64.2,29.92,WNW,295,0.0,1.0,91,0.00,,,0.00,meteohub,2013-05-22 05:57:00,
2013-05-22 02:02:00,66.9,64.2,29.92,WNW,295,0.0,1.0,91,0.00,,,0.00,meteohub,2013-05-22 06:02:00,
2013-05-22 02:07:00,66.9,64.6,29.91,WNW,295,0.0,1.0,92,0.00,,,0.00,meteohub,2013-05-22 06:07:00,
2013-05-22 02:12:00,66.9,64.2,29.91,WNW,295,0.0,1.0,91,0.00,,,0.00,meteohub,2013-05-22 06:12:00,
2013-05-22 02:17:00,66.7,64.0,29.92,WNW,295,0.0,1.0,91,0.00,,,0.00,meteohub,2013-05-22 06:17:00,
2013-05-22 02:22:00,66.7,64.0,29.92,WNW,295,0.0,0.0,91,0.00,,,0.00,meteohub,2013-05-22 06:22:00,
2013-05-22 02:27:00,66.6,64.2,29.91,WNW,295,0.0,0.0,92,0.00,,,0.00,meteohub,2013-05-22 06:27:00,
2013-05-22 02:32:00,66.6,64.2,29.91,WNW,295,0.0,0.0,92,0.00,,,0.00,meteohub,2013-05-22 06:32:00,
2013-05-22 02:37:00,66.4,64.0,29.91,WNW,295,0.0,1.0,92,0.00,,,0.00,meteohub,2013-05-22 06:37:00,
2013-05-22 02:42:00,66.4,64.0,29.91,WNW,295,0.0,1.0,92,0.00,,,0.00,meteohub,2013-05-22 06:42:00,
2013-05-22 02:47:00,66.4,64.0,29.91,WNW,295,0.0,1.0,92,0.00,,,0.00,meteohub,2013-05-22 06:47:00,
2013-05-22 02:52:00,66.2,64.0,29.91,WNW,295,0.0,1.0,93,0.00,,,0.00,meteohub,2013-05-22 06:52:00,
2013-05-22 02:57:00,66.2,64.0,29.91,WNW,295,0.0,1.0,93,0.00,,,0.00,meteohub,2013-05-22 06:57:00,
2013-05-22 03:02:00,66.0,63.9,29.91,WNW,295,0.0,1.0,93,0.00,,,0.00,meteohub,2013-05-22 07:02:00,
2013-05-22 03:07:00,66.0,63.9,29.90,WNW,295,0.0,1.0,93,0.00,,,0.00,meteohub,2013-05-22 07:07:00,
2013-05-22 03:12:00,65.8,63.7,29.90,WNW,295,0.0,0.0,93,0.00,,,0.00,meteohub,2013-05-22 07:12:00,
2013-05-22 03:17:00,65.8,64.0,29.90,WNW,295,0.0,0.0,94,0.00,,,0.00,meteohub,2013-05-22 07:17:00,
2013-05-22 03:22:00,66.0,64.2,29.90,WNW,295,0.0,1.0,94,0.00,,,0.00,meteohub,2013-05-22 07:22:00,
2013-05-22 03:27:00,65.8,64.0,29.89,WNW,295,0.0,1.0,94,0.00,,,0.00,meteohub,2013-05-22 07:27:00,
2013-05-22 03:32:00,65.8,64.0,29.90,WNW,295,0.0,1.0,94,0.00,,,0.00,meteohub,2013-05-22 07:32:00,
2013-05-22 03:37:00,65.7,63.9,29.89,WNW,295,0.0,0.0,94,0.00,,,0.00,meteohub,2013-05-22 07:37:00,
2013-05-22 03:42:00,65.7,63.9,29.89,WNW,295,0.0,0.0,94,0.00,,,0.00,meteohub,2013-05-22 07:42:00,
2013-05-22 03:47:00,65.5,63.7,29.89,WNW,295,0.0,0.0,94,0.00,,,0.00,meteohub,2013-05-22 07:47:00,
2013-05-22 03:52:00,65.5,63.7,29.88,WNW,295,0.0,0.0,94,0.00,,,0.00,meteohub,2013-05-22 07:52:00,
2013-05-22 03:57:00,65.5,64.0,29.88,WNW,295,0.0,0.0,95,0.00,,,0.00,meteohub,2013-05-22 07:57:00,
2013-05-22 04:02:00,65.5,64.0,29.88,WNW,295,0.0,0.0,95,0.00,,,0.00,meteohub,2013-05-22 08:02:00,
2013-05-22 04:07:00,65.3,63.9,29.89,WNW,295,0.0,0.0,95,0.00,,,0.00,meteohub,2013-05-22 08:07:00,
2013-05-22 04:12:00,65.1,63.7,29.89,WNW,295,0.0,0.0,95,0.00,,,0.00,meteohub,2013-05-22 08:12:00,
2013-05-22 04:17:00,65.1,63.7,29.89,WNW,295,0.0,0.0,95,0.00,,,0.00,meteohub,2013-05-22 08:17:00,
2013-05-22 04:22:00,65.1,63.7,29.89,WNW,295,0.0,0.0,95,0.00,,,0.00,meteohub,2013-05-22 08:22:00,
2013-05-22 04:27:00,65.1,63.7,29.89,WNW,295,0.0,1.0,95,0.00,,,0.00,meteohub,2013-05-22 08:27:00,
2013-05-22 04:32:00,65.1,64.0,29.89,WNW,295,0.0,1.0,96,0.00,,,0.00,meteohub,2013-05-22 08:32:00,
2013-05-22 04:37:00,65.1,64.0,29.89,WNW,295,0.0,0.0,96,0.00,,,0.00,meteohub,2013-05-22 08:37:00,
2013-05-22 04:42:00,65.1,64.0,29.89,WNW,295,0.0,0.0,96,0.00,,,0.00,meteohub,2013-05-22 08:42:00,
2013-05-22 04:47:00,64.9,63.9,29.89,WNW,295,0.0,0.0,96,0.00,,,0.00,meteohub,2013-05-22 08:47:00,
2013-05-22 04:52:00,64.9,63.9,29.89,WNW,295,0.0,0.0,96,0.00,,,0.00,meteohub,2013-05-22 08:52:00,
2013-05-22 04:57:00,64.9,63.9,29.90,WNW,295,0.0,0.0,96,0.00,,,0.00,meteohub,2013-05-22 08:57:00,
2013-05-22 05:02:00,64.9,63.9,29.89,WNW,295,0.0,0.0,96,0.00,,,0.00,meteohub,2013-05-22 09:02:00,
2013-05-22 05:07:00,64.9,63.9,29.89,WNW,295,0.0,0.0,96,0.00,,,0.00,meteohub,2013-05-22 09:07:00,
2013-05-22 05:12:00,64.9,63.9,29.90,WNW,295,0.0,0.0,96,0.00,,,0.00,meteohub,2013-05-22 09:12:00,
2013-05-22 05:17:00,64.9,63.9,29.90,WNW,295,0.0,0.0,96,0.00,,,0.00,meteohub,2013-05-22 09:17:00,
2013-05-22 05:22:00,64.8,63.7,29.90,WNW,295,0.0,0.0,96,0.00,,,0.00,meteohub,2013-05-22 09:22:00,
2013-05-22 05:27:00,64.8,63.7,29.90,WNW,295,0.0,0.0,96,0.00,,,0.00,meteohub,2013-05-22 09:27:00,
2013-05-22 05:32:00,64.8,63.7,29.89,WNW,295,0.0,0.0,96,0.00,,,0.00,meteohub,2013-05-22 09:32:00,
2013-05-22 05:37:00,64.8,63.7,29.89,WNW,295,0.0,0.0,96,0.00,,,0.00,meteohub,2013-05-22 09:37:00,
2013-05-22 05:42:00,64.8,63.9,29.90,WNW,295,0.0,0.0,97,0.00,,,0.00,meteohub,2013-05-22 09:42:00,
2013-05-22 05:46:00,64.8,63.9,29.90,WNW,295,0.0,0.0,97,0.00,,,0.00,meteohub,2013-05-22 09:46:00,
2013-05-22 05:51:00,64.8,63.9,29.91,WNW,295,0.0,0.0,97,0.00,,,0.00,meteohub,2013-05-22 09:51:00,
2013-05-22 05:57:00,64.8,63.9,29.91,WNW,295,0.0,0.0,97,0.00,,,0.00,meteohub,2013-05-22 09:57:00,
2013-05-22 06:02:00,64.6,63.7,29.91,WNW,295,0.0,0.0,97,0.00,,,0.00,meteohub,2013-05-22 10:02:00,
2013-05-22 06:07:00,64.6,63.7,29.91,WNW,295,0.0,0.0,97,0.00,,,0.00,meteohub,2013-05-22 10:07:00,
2013-05-22 06:12:00,64.6,63.7,29.91,WNW,295,0.0,0.0,97,0.00,,,0.00,meteohub,2013-05-22 10:12:00,
2013-05-22 06:17:00,64.6,63.7,29.91,WNW,295,0.0,0.0,97,0.00,,,0.00,meteohub,2013-05-22 10:17:00,
2013-05-22 06:22:00,64.6,63.7,29.91,WNW,295,0.0,0.0,97,0.00,,,0.00,meteohub,2013-05-22 10:22:00,
2013-05-22 06:27:00,64.6,63.7,29.91,WNW,295,0.0,0.0,97,0.00,,,0.00,meteohub,2013-05-22 10:27:00,
2013-05-22 06:32:00,64.6,63.7,29.91,WNW,295,0.0,0.0,97,0.00,,,0.00,meteohub,2013-05-22 10:32:00,
2013-05-22 06:37:00,64.6,63.7,29.91,WNW,295,0.0,0.0,97,0.00,,,0.00,meteohub,2013-05-22 10:37:00,
2013-05-22 06:42:00,64.8,63.9,29.91,WNW,295,0.0,0.0,97,0.00,,,0.00,meteohub,2013-05-22 10:42:00,
2013-05-22 06:47:00,64.8,63.9,29.91,WNW,295,0.0,0.0,97,0.00,,,0.00,meteohub,2013-05-22 10:47:00,
2013-05-22 06:52:00,64.8,63.9,29.91,WNW,295,0.0,0.0,97,0.00,,,0.00,meteohub,2013-05-22 10:52:00,
2013-05-22 06:57:00,64.8,63.9,29.91,WNW,295,0.0,0.0,97,0.00,,,0.00,meteohub,2013-05-22 10:57:00,
2013-05-22 07:02:00,64.8,63.9,29.91,WNW,295,1.0,0.0,97,0.00,,,0.00,meteohub,2013-05-22 11:02:00,
2013-05-22 07:07:00,64.8,63.9,29.91,WNW,295,0.0,1.0,97,0.00,,,0.00,meteohub,2013-05-22 11:07:00,
2013-05-22 07:12:00,64.9,64.0,29.91,WNW,295,0.0,1.0,97,0.00,,,0.00,meteohub,2013-05-22 11:12:00,
2013-05-22 07:17:00,64.9,64.0,29.92,WNW,295,0.0,1.0,97,0.00,,,0.00,meteohub,2013-05-22 11:17:00,
2013-05-22 07:22:00,64.9,64.0,29.92,WNW,295,0.0,0.0,97,0.00,,,0.00,meteohub,2013-05-22 11:22:00,
2013-05-22 07:27:00,64.9,64.0,29.92,WNW,295,0.0,1.0,97,0.00,,,0.00,meteohub,2013-05-22 11:27:00,
2013-05-22 07:32:00,64.9,64.0,29.92,WNW,295,0.0,1.0,97,0.00,,,0.00,meteohub,2013-05-22 11:32:00,
2013-05-22 07:37:00,64.9,64.0,29.92,WNW,295,0.0,1.0,97,0.00,,,0.00,meteohub,2013-05-22 11:37:00,
2013-05-22 07:42:00,64.9,64.0,29.92,WNW,295,0.0,1.0,97,0.00,,,0.00,meteohub,2013-05-22 11:42:00,
2013-05-22 07:47:00,65.1,64.6,29.92,WNW,295,0.0,1.0,98,0.00,,,0.00,meteohub,2013-05-22 11:47:00,
2013-05-22 07:52:00,65.5,64.9,29.92,WNW,295,0.0,1.0,98,0.00,,,0.00,meteohub,2013-05-22 11:52:00,
2013-05-22 07:57:00,65.7,65.1,29.92,SSE,166,0.0,1.0,98,0.00,,,0.00,meteohub,2013-05-22 11:57:00,
2013-05-22 08:02:00,65.8,65.3,29.92,SSE,166,0.0,1.0,98,0.00,,,0.00,meteohub,2013-05-22 12:02:00,
2013-05-22 08:07:00,66.0,65.5,29.92,SSE,167,0.0,1.0,98,0.00,,,0.00,meteohub,2013-05-22 12:07:00,
2013-05-22 08:12:00,66.2,65.7,29.92,South,171,0.0,0.0,98,0.00,,,0.00,meteohub,2013-05-22 12:12:00,
2013-05-22 08:17:00,66.4,65.5,29.93,South,170,0.0,1.0,97,0.00,,,0.00,meteohub,2013-05-22 12:17:00,
2013-05-22 08:22:00,66.6,65.7,29.93,South,170,0.0,1.0,97,0.00,,,0.00,meteohub,2013-05-22 12:22:00,
2013-05-22 08:27:00,66.7,65.8,29.93,South,173,0.0,1.0,97,0.00,,,0.00,meteohub,2013-05-22 12:27:00,
2013-05-22 08:32:00,66.7,65.5,29.93,South,173,0.0,0.0,96,0.00,,,0.00,meteohub,2013-05-22 12:32:00,
2013-05-22 08:37:00,66.7,65.5,29.93,South,173,0.0,0.0,96,0.00,,,0.00,meteohub,2013-05-22 12:37:00,
2013-05-22 08:42:00,66.9,65.7,29.93,South,173,0.0,0.0,96,0.00,,,0.00,meteohub,2013-05-22 12:42:00,
2013-05-22 08:47:00,66.9,65.7,29.93,South,173,0.0,0.0,96,0.00,,,0.00,meteohub,2013-05-22 12:47:00,
2013-05-22 08:52:00,66.9,65.7,29.92,South,173,0.0,0.0,96,0.00,,,0.00,meteohub,2013-05-22 12:52:00,
2013-05-22 08:57:00,67.3,66.0,29.92,South,173,0.0,0.0,96,0.00,,,0.00,meteohub,2013-05-22 12:57:00,
2013-05-22 09:02:00,67.5,66.2,29.93,South,173,0.0,0.0,96,0.00,,,0.00,meteohub,2013-05-22 13:02:00,
2013-05-22 09:07:00,67.6,66.4,29.93,South,173,0.0,0.0,96,0.00,,,0.00,meteohub,2013-05-22 13:07:00,
2013-05-22 09:12:00,67.8,66.4,29.93,South,180,0.0,0.0,95,0.00,,,0.00,meteohub,2013-05-22 13:12:00,
2013-05-22 09:17:00,68.0,66.2,29.93,South,180,0.0,1.0,94,0.00,,,0.00,meteohub,2013-05-22 13:17:00,
2013-05-22 09:22:00,68.2,66.4,29.93,South,180,0.0,1.0,94,0.00,,,0.00,meteohub,2013-05-22 13:22:00,
2013-05-22 09:27:00,68.4,66.2,29.93,South,180,0.0,1.0,93,0.00,,,0.00,meteohub,2013-05-22 13:27:00,
2013-05-22 09:32:00,68.7,66.6,29.93,South,180,0.0,1.0,93,0.00,,,0.00,meteohub,2013-05-22 13:32:00,
2013-05-22 09:37:00,69.1,66.7,29.93,South,181,0.0,1.0,92,0.00,,,0.00,meteohub,2013-05-22 13:37:00,
2013-05-22 09:42:00,69.3,66.6,29.94,South,180,0.0,0.0,91,0.00,,,0.00,meteohub,2013-05-22 13:42:00,
2013-05-22 09:47:00,69.4,66.4,29.93,South,180,0.0,1.0,90,0.00,,,0.00,meteohub,2013-05-22 13:47:00,
2013-05-22 09:52:00,69.6,66.6,29.93,South,180,0.0,1.0,90,0.00,,,0.00,meteohub,2013-05-22 13:52:00,
2013-05-22 09:57:00,70.2,67.1,29.93,South,180,0.0,1.0,90,0.00,,,0.00,meteohub,2013-05-22 13:57:00,
2013-05-22 10:02:00,70.3,66.6,29.93,South,180,0.0,0.0,88,0.00,,,0.00,meteohub,2013-05-22 14:02:00,
2013-05-22 10:07:00,70.9,67.1,29.92,South,181,0.0,1.0,88,0.00,,,0.00,meteohub,2013-05-22 14:07:00,
2013-05-22 10:12:00,71.4,67.3,29.92,South,180,0.0,1.0,87,0.00,,,0.00,meteohub,2013-05-22 14:12:00,
2013-05-22 10:17:00,72.0,67.5,29.92,South,180,0.0,1.0,86,0.00,,,0.00,meteohub,2013-05-22 14:17:00,
2013-05-22 10:22:00,72.5,68.0,29.92,South,177,0.0,0.0,86,0.00,,,0.00,meteohub,2013-05-22 14:22:00,
2013-05-22 10:27:00,72.9,67.8,29.92,South,183,0.0,1.0,84,0.00,,,0.00,meteohub,2013-05-22 14:27:00,
2013-05-22 10:31:00,72.9,67.8,29.92,South,179,1.0,2.0,84,0.00,,,0.00,meteohub,2013-05-22 14:31:00,
2013-05-22 10:37:00,72.9,67.8,29.92,SSE,167,0.0,2.0,84,0.00,,,0.00,meteohub,2013-05-22 14:37:00,
2013-05-22 10:42:00,73.2,68.2,29.92,West,264,0.0,2.0,84,0.00,,,0.00,meteohub,2013-05-22 14:42:00,
2013-05-22 10:47:00,73.2,67.8,29.92,West,278,0.0,2.0,83,0.00,,,0.00,meteohub,2013-05-22 14:47:00,
2013-05-22 10:52:00,73.2,68.2,29.92,West,278,1.0,1.0,84,0.00,,,0.00,meteohub,2013-05-22 14:52:00,
2013-05-22 10:57:00,73.2,68.2,29.92,SW,217,1.0,1.0,84,0.00,,,0.00,meteohub,2013-05-22 14:57:00,
2013-05-22 11:02:00,73.2,68.2,29.92,WSW,252,1.0,1.0,84,0.00,,,0.00,meteohub,2013-05-22 15:02:00,
2013-05-22 11:07:00,73.9,68.7,29.92,WNW,300,1.0,1.0,84,0.00,,,0.00,meteohub,2013-05-22 15:07:00,
2013-05-22 11:12:00,74.7,68.4,29.92,SSW,197,1.0,2.0,81,0.00,,,0.00,meteohub,2013-05-22 15:12:00,
2013-05-22 11:17:00,75.0,68.7,29.92,SW,231,0.0,2.0,81,0.00,,,0.00,meteohub,2013-05-22 15:17:00,
2013-05-22 11:22:00,75.7,68.7,29.92,South,173,0.0,3.0,79,0.00,,,0.00,meteohub,2013-05-22 15:22:00,
2013-05-22 11:27:00,76.3,68.5,29.92,NW,325,1.0,3.0,77,0.00,,,0.00,meteohub,2013-05-22 15:27:00,
2013-05-22 11:32:00,76.1,68.4,29.92,NNW,332,0.0,2.0,77,0.00,,,0.00,meteohub,2013-05-22 15:32:00,
2013-05-22 11:37:00,75.6,68.5,29.92,NNW,332,0.0,3.0,79,0.00,,,0.00,meteohub,2013-05-22 15:37:00,
2013-05-22 11:42:00,75.9,69.3,29.92,SE,125,0.0,3.0,80,0.00,,,0.00,meteohub,2013-05-22 15:42:00,
2013-05-22 11:47:00,76.6,69.3,29.92,SSE,167,0.0,2.0,78,0.00,,,0.00,meteohub,2013-05-22 15:47:00,
2013-05-22 11:52:00,77.2,69.8,29.92,WNW,300,1.0,1.0,78,0.00,,,0.00,meteohub,2013-05-22 15:52:00,
2013-05-22 11:57:00,77.7,69.6,29.92,SSE,153,0.0,2.0,76,0.00,,,0.00,meteohub,2013-05-22 15:57:00,
2013-05-22 12:02:00,78.3,69.6,29.93,North,352,1.0,2.0,75,0.00,,,0.00,meteohub,2013-05-22 16:02:00,
2013-05-22 12:07:00,78.4,69.4,29.93,SSW,210,1.0,2.0,74,0.00,,,0.00,meteohub,2013-05-22 16:07:00,
2013-05-22 12:12:00,78.8,69.4,29.92,NW,317,0.0,2.0,73,0.00,,,0.00,meteohub,2013-05-22 16:12:00,
2013-05-22 12:17:00,79.0,69.6,29.92,SW,229,0.0,2.0,73,0.00,,,0.00,meteohub,2013-05-22 16:17:00,
2013-05-22 12:22:00,79.0,70.0,29.92,North,352,0.0,2.0,74,0.00,,,0.00,meteohub,2013-05-22 16:22:00,
2013-05-22 12:27:00,78.8,69.8,29.92,North,351,0.0,2.0,74,0.00,,,0.00,meteohub,2013-05-22 16:27:00,
2013-05-22 12:32:00,78.8,69.8,29.92,WSW,241,1.0,2.0,74,0.00,,,0.00,meteohub,2013-05-22 16:32:00,
2013-05-22 12:37:00,79.0,70.3,29.92,NW,312,1.0,2.0,75,0.00,,,0.00,meteohub,2013-05-22 16:37:00,
2013-05-22 12:42:00,79.5,70.2,29.92,SW,214,1.0,2.0,73,0.00,,,0.00,meteohub,2013-05-22 16:42:00,
2013-05-22 12:47:00,79.9,70.9,29.91,SSE,163,0.0,2.0,74,0.00,,,0.00,meteohub,2013-05-22 16:47:00,
2013-05-22 12:52:00,80.6,71.1,29.91,South,171,1.0,2.0,73,0.00,,,0.00,meteohub,2013-05-22 16:52:00,
2013-05-22 12:57:00,81.1,70.3,29.91,WNW,290,1.0,2.0,70,0.00,,,0.00,meteohub,2013-05-22 16:57:00,
2013-05-22 13:02:00,81.5,70.3,29.91,South,177,0.0,2.0,69,0.00,,,0.00,meteohub,2013-05-22 17:02:00,
2013-05-22 13:07:00,81.9,71.1,29.91,NW,307,0.0,2.0,70,0.00,,,0.00,meteohub,2013-05-22 17:07:00,
2013-05-22 13:12:00,82.0,70.3,29.91,WNW,302,0.0,2.0,68,0.00,,,0.00,meteohub,2013-05-22 17:12:00,
2013-05-22 13:17:00,82.2,70.5,29.91,SSE,166,0.0,2.0,68,0.00,,,0.00,meteohub,2013-05-22 17:17:00,
2013-05-22 13:22:00,82.8,71.6,29.91,South,186,0.0,1.0,69,0.00,,,0.00,meteohub,2013-05-22 17:22:00,
2013-05-22 13:27:00,82.9,71.2,29.91,SSE,158,1.0,1.0,68,0.00,,,0.00,meteohub,2013-05-22 17:27:00,
2013-05-22 13:32:00,83.3,71.6,29.91,WNW,295,1.0,1.0,68,0.00,,,0.00,meteohub,2013-05-22 17:32:00,
2013-05-22 13:37:00,82.9,70.9,29.91,WNW,302,0.0,1.0,67,0.00,,,0.00,meteohub,2013-05-22 17:37:00,
2013-05-22 13:42:00,83.3,72.1,29.91,NW,308,1.0,2.0,69,0.00,,,0.00,meteohub,2013-05-22 17:42:00,
2013-05-22 13:47:00,83.7,72.0,29.90,South,190,0.0,2.0,68,0.00,,,0.00,meteohub,2013-05-22 17:47:00,
2013-05-22 13:52:00,83.8,70.9,29.90,SW,233,0.0,2.0,65,0.00,,,0.00,meteohub,2013-05-22 17:52:00,
2013-05-22 13:57:00,83.8,71.2,29.90,WNW,302,0.0,2.0,66,0.00,,,0.00,meteohub,2013-05-22 17:57:00,
2013-05-22 14:02:00,83.7,71.1,29.89,NW,307,1.0,2.0,66,0.00,,,0.00,meteohub,2013-05-22 18:02:00,
2013-05-22 14:07:00,83.7,71.6,29.89,SW,233,2.0,2.0,67,0.00,,,0.00,meteohub,2013-05-22 18:07:00,
2013-05-22 14:12:00,83.5,71.4,29.89,West,273,0.0,2.0,67,0.00,,,0.00,meteohub,2013-05-22 18:12:00,
2013-05-22 14:17:00,83.7,71.6,29.88,SSW,212,0.0,2.0,67,0.00,,,0.00,meteohub,2013-05-22 18:17:00,
2013-05-22 14:22:00,84.0,70.5,29.89,SSW,210,0.0,2.0,64,0.00,,,0.00,meteohub,2013-05-22 18:22:00,
2013-05-22 14:27:00,84.0,71.1,29.89,NW,314,1.0,3.0,65,0.00,,,0.00,meteohub,2013-05-22 18:27:00,
2013-05-22 14:32:00,84.4,70.3,29.88,WSW,246,1.0,3.0,63,0.00,,,0.00,meteohub,2013-05-22 18:32:00,
2013-05-22 14:37:00,84.4,71.8,29.88,West,259,1.0,3.0,66,0.00,,,0.00,meteohub,2013-05-22 18:37:00,
2013-05-22 14:42:00,84.6,71.4,29.88,SSW,211,0.0,3.0,65,0.00,,,0.00,meteohub,2013-05-22 18:42:00,
2013-05-22 14:47:00,84.4,71.8,29.87,SSW,205,0.0,3.0,66,0.00,,,0.00,meteohub,2013-05-22 18:47:00,
2013-05-22 14:52:00,84.4,71.8,29.87,NNW,338,1.0,3.0,66,0.00,,,0.00,meteohub,2013-05-22 18:52:00,
2013-05-22 14:57:00,84.6,71.4,29.87,WSW,257,0.0,1.0,65,0.00,,,0.00,meteohub,2013-05-22 18:57:00,
2013-05-22 15:02:00,84.7,71.6,29.87,SSE,159,0.0,2.0,65,0.00,,,0.00,meteohub,2013-05-22 19:02:00,
2013-05-22 15:07:00,84.9,71.8,29.85,ENE,63,0.0,2.0,65,0.00,,,0.00,meteohub,2013-05-22 19:07:00,
2013-05-22 15:12:00,84.9,71.8,29.85,SW,217,0.0,2.0,65,0.00,,,0.00,meteohub,2013-05-22 19:12:00,
2013-05-22 15:17:00,85.1,72.0,29.86,West,264,1.0,2.0,65,0.00,,,0.00,meteohub,2013-05-22 19:17:00,
2013-05-22 15:22:00,84.7,72.1,29.86,NW,308,0.0,4.0,66,0.00,,,0.00,meteohub,2013-05-22 19:22:00,
2013-05-22 15:27:00,83.7,71.6,29.86,SSE,166,2.0,4.0,67,0.00,,,0.00,meteohub,2013-05-22 19:27:00,
2013-05-22 15:32:00,82.6,70.9,29.86,North,359,1.0,4.0,68,0.00,,,0.00,meteohub,2013-05-22 19:32:00,
2013-05-22 15:37:00,81.1,69.1,29.86,West,266,0.0,4.0,67,0.00,,,0.00,meteohub,2013-05-22 19:37:00,
2013-05-22 15:42:00,79.9,68.0,29.86,NW,316,1.0,4.0,67,0.00,,,0.00,meteohub,2013-05-22 19:42:00,
2013-05-22 15:47:00,78.6,65.5,29.85,South,184,1.0,4.0,64,0.00,,,0.00,meteohub,2013-05-22 19:47:00,
2013-05-22 15:52:00,77.4,63.9,29.85,NNW,345,1.0,2.0,63,0.00,,,0.00,meteohub,2013-05-22 19:52:00,
2013-05-22 15:57:00,75.9,63.7,29.85,WNW,297,1.0,4.0,66,0.00,,,0.00,meteohub,2013-05-22 19:57:00,
2013-05-22 16:02:00,75.4,63.7,29.85,SW,222,1.0,4.0,67,0.00,,,0.00,meteohub,2013-05-22 20:02:00,
2013-05-22 16:07:00,75.0,63.7,29.86,West,271,0.0,3.0,68,0.00,,,0.00,meteohub,2013-05-22 20:07:00,
2013-05-22 16:12:00,75.0,64.6,29.85,WSW,257,0.0,3.0,70,0.00,,,0.00,meteohub,2013-05-22 20:12:00,
2013-05-22 16:17:00,75.4,65.3,29.85,SW,232,0.0,3.0,71,0.00,,,0.00,meteohub,2013-05-22 20:17:00,
2013-05-22 16:22:00,75.7,65.3,29.84,SSW,210,1.0,3.0,70,0.00,,,0.00,meteohub,2013-05-22 20:22:00,
2013-05-22 16:27:00,76.5,66.0,29.84,SSW,210,0.0,1.0,70,0.00,,,0.00,meteohub,2013-05-22 20:27:00,
2013-05-22 16:32:00,77.0,66.0,29.83,SSW,203,0.0,1.0,69,0.00,,,0.00,meteohub,2013-05-22 20:32:00,
2013-05-22 16:37:00,77.5,66.9,29.83,SSW,203,1.0,1.0,70,0.00,,,0.00,meteohub,2013-05-22 20:37:00,
2013-05-22 16:42:00,78.3,66.7,29.83,SSW,203,0.0,1.0,68,0.00,,,0.00,meteohub,2013-05-22 20:42:00,
2013-05-22 16:47:00,78.6,67.6,29.82,SSW,203,0.0,1.0,69,0.00,,,0.00,meteohub,2013-05-22 20:47:00,
2013-05-22 16:52:00,79.2,67.3,29.82,SSW,203,0.0,1.0,67,0.00,,,0.00,meteohub,2013-05-22 20:52:00,
2013-05-22 16:57:00,79.7,66.9,29.81,WSW,248,0.0,1.0,65,0.00,,,0.00,meteohub,2013-05-22 20:57:00,
2013-05-22 17:02:00,79.9,67.1,29.81,SW,232,1.0,2.0,65,0.00,,,0.00,meteohub,2013-05-22 21:02:00,
2013-05-22 17:07:00,79.7,66.4,29.81,SSE,160,1.0,2.0,64,0.00,,,0.00,meteohub,2013-05-22 21:07:00,
2013-05-22 17:12:00,79.7,66.9,29.81,SW,223,1.0,2.0,65,0.00,,,0.00,meteohub,2013-05-22 21:12:00,
2013-05-22 17:17:00,79.5,67.6,29.81,SSW,205,0.0,2.0,67,0.00,,,0.00,meteohub,2013-05-22 21:17:00,
2013-05-22 17:22:00,79.3,67.8,29.81,WSW,257,1.0,1.0,68,0.00,,,0.00,meteohub,2013-05-22 21:22:00,
2013-05-22 17:27:00,79.3,67.8,29.81,North,9,0.0,1.0,68,0.00,,,0.00,meteohub,2013-05-22 21:27:00,
2013-05-22 17:32:00,79.3,67.8,29.81,West,275,0.0,1.0,68,0.00,,,0.00,meteohub,2013-05-22 21:32:00,
2013-05-22 17:37:00,79.7,69.1,29.81,SW,231,1.0,1.0,70,0.00,,,0.00,meteohub,2013-05-22 21:37:00,
2013-05-22 17:42:00,79.5,69.6,29.81,NNW,331,0.0,2.0,72,0.00,,,0.00,meteohub,2013-05-22 21:42:00,
2013-05-22 17:47:00,79.3,70.0,29.81,NNW,330,0.0,2.0,73,0.00,,,0.00,meteohub,2013-05-22 21:47:00,
2013-05-22 17:52:00,79.2,70.5,29.81,WSW,241,0.0,2.0,75,0.00,,,0.00,meteohub,2013-05-22 21:52:00,
2013-05-22 17:57:00,79.0,70.0,29.81,SW,231,0.0,1.0,74,0.00,,,0.00,meteohub,2013-05-22 21:57:00,
2013-05-22 18:02:00,78.8,69.8,29.81,SW,221,1.0,1.0,74,0.00,,,0.00,meteohub,2013-05-22 22:02:00,
2013-05-22 18:07:00,78.6,68.9,29.81,SW,221,0.0,1.0,72,0.00,,,0.00,meteohub,2013-05-22 22:07:00,
2013-05-22 18:12:00,78.4,67.5,29.81,SW,221,0.0,1.0,69,0.00,,,0.00,meteohub,2013-05-22 22:12:00,
2013-05-22 18:17:00,78.3,67.3,29.81,SW,215,1.0,1.0,69,0.00,,,0.00,meteohub,2013-05-22 22:17:00,
2013-05-22 18:22:00,78.1,67.1,29.81,SW,214,0.0,1.0,69,0.00,,,0.00,meteohub,2013-05-22 22:22:00,
2013-05-22 18:27:00,78.1,67.5,29.81,SW,215,0.0,1.0,70,0.00,,,0.00,meteohub,2013-05-22 22:27:00,
2013-05-22 18:32:00,78.1,67.5,29.81,SW,218,0.0,1.0,70,0.00,,,0.00,meteohub,2013-05-22 22:32:00,
2013-05-22 18:37:00,78.1,67.8,29.81,SW,214,0.0,1.0,71,0.00,,,0.00,meteohub,2013-05-22 22:37:00,
2013-05-22 18:42:00,78.1,68.4,29.81,SW,232,0.0,1.0,72,0.00,,,0.00,meteohub,2013-05-22 22:42:00,
2013-05-22 18:47:00,78.1,67.5,29.81,SW,232,0.0,1.0,70,0.00,,,0.00,meteohub,2013-05-22 22:47:00,
2013-05-22 18:52:00,77.9,67.3,29.82,NNW,347,0.0,1.0,70,0.00,,,0.00,meteohub,2013-05-22 22:52:00,
2013-05-22 18:57:00,77.7,67.6,29.82,NNW,347,0.0,1.0,71,0.00,,,0.00,meteohub,2013-05-22 22:57:00,
2013-05-22 19:02:00,77.7,68.0,29.82,NNW,347,0.0,1.0,72,0.00,,,0.00,meteohub,2013-05-22 23:02:00,
2013-05-22 19:07:00,77.7,68.4,29.82,NNW,347,0.0,1.0,73,0.00,,,0.00,meteohub,2013-05-22 23:07:00,
2013-05-22 19:12:00,77.9,68.2,29.82,NW,308,0.0,0.0,72,0.00,,,0.00,meteohub,2013-05-22 23:12:00,
2013-05-22 19:17:00,78.1,68.7,29.81,NW,308,0.0,0.0,73,0.00,,,0.00,meteohub,2013-05-22 23:17:00,
2013-05-22 19:22:00,78.3,68.9,29.81,NW,308,0.0,0.0,73,0.00,,,0.00,meteohub,2013-05-22 23:22:00,
2013-05-22 19:27:00,78.3,68.9,29.81,NW,308,0.0,0.0,73,0.00,,,0.00,meteohub,2013-05-22 23:27:00,
2013-05-22 19:32:00,78.1,70.0,29.81,NW,308,0.0,0.0,76,0.00,,,0.00,meteohub,2013-05-22 23:32:00,
2013-05-22 19:37:00,77.7,69.6,29.82,NW,308,0.0,0.0,76,0.00,,,0.00,meteohub,2013-05-22 23:37:00,
2013-05-22 19:42:00,77.5,69.4,29.82,NW,306,0.0,0.0,76,0.00,,,0.00,meteohub,2013-05-22 23:42:00,
2013-05-22 19:47:00,77.4,68.9,29.82,NW,308,0.0,0.0,75,0.00,,,0.00,meteohub,2013-05-22 23:47:00,
2013-05-22 19:52:00,77.2,69.1,29.82,NW,306,0.0,0.0,76,0.00,,,0.00,meteohub,2013-05-22 23:52:00,
2013-05-22 19:57:00,77.2,69.1,29.82,NW,308,0.0,0.0,76,0.00,,,0.00,meteohub,2013-05-22 23:57:00,
2013-05-22 20:02:00,77.2,69.4,29.82,NW,307,1.0,0.0,77,0.00,,,0.00,meteohub,2013-05-23 00:02:00,
2013-05-22 20:07:00,76.6,68.9,29.82,NW,308,0.0,1.0,77,0.00,,,0.00,meteohub,2013-05-23 00:07:00,
2013-05-22 20:12:00,76.5,69.1,29.82,NW,307,0.0,1.0,78,0.00,,,0.00,meteohub,2013-05-23 00:12:00,
2013-05-22 20:17:00,76.1,68.7,29.82,NW,306,0.0,1.0,78,0.00,,,0.00,meteohub,2013-05-23 00:17:00,
2013-05-22 20:22:00,75.9,68.5,29.82,NW,306,0.0,1.0,78,0.00,,,0.00,meteohub,2013-05-23 00:22:00,
2013-05-22 20:27:00,75.7,68.0,29.82,NW,307,0.0,1.0,77,0.00,,,0.00,meteohub,2013-05-23 00:27:00,
2013-05-22 20:32:00,75.6,68.2,29.82,NW,307,0.0,0.0,78,0.00,,,0.00,meteohub,2013-05-23 00:32:00,
2013-05-22 20:37:00,75.4,68.4,29.82,NW,307,0.0,0.0,79,0.00,,,0.00,meteohub,2013-05-23 00:37:00,
2013-05-22 20:42:00,75.0,68.4,29.83,NW,307,0.0,0.0,80,0.00,,,0.00,meteohub,2013-05-23 00:42:00,
2013-05-22 20:47:00,74.7,68.4,29.83,NW,307,0.0,0.0,81,0.00,,,0.00,meteohub,2013-05-23 00:47:00,
2013-05-22 20:52:00,74.1,68.0,29.83,NW,307,0.0,0.0,81,0.00,,,0.00,meteohub,2013-05-23 00:52:00,
2013-05-22 20:57:00,73.9,68.2,29.83,NW,307,0.0,0.0,82,0.00,,,0.00,meteohub,2013-05-23 00:57:00,
2013-05-22 21:02:00,73.6,67.8,29.83,NW,308,0.0,0.0,82,0.00,,,0.00,meteohub,2013-05-23 01:02:00,
2013-05-22 21:07:00,73.2,67.8,29.83,NW,307,0.0,0.0,83,0.00,,,0.00,meteohub,2013-05-23 01:07:00,
2013-05-22 21:12:00,73.0,67.6,29.83,NW,307,0.0,0.0,83,0.00,,,0.00,meteohub,2013-05-23 01:12:00,
2013-05-22 21:17:00,72.9,67.8,29.83,NW,306,0.0,0.0,84,0.00,,,0.00,meteohub,2013-05-23 01:17:00,
2013-05-22 21:22:00,72.5,67.5,29.84,NW,307,0.0,0.0,84,0.00,,,0.00,meteohub,2013-05-23 01:22:00,
2013-05-22 21:27:00,72.1,66.7,29.84,NW,306,0.0,0.0,83,0.00,,,0.00,meteohub,2013-05-23 01:27:00,
2013-05-22 21:32:00,71.8,66.0,29.84,NW,307,0.0,0.0,82,0.00,,,0.00,meteohub,2013-05-23 01:32:00,
2013-05-22 21:37:00,71.6,65.8,29.84,NW,307,0.0,0.0,82,0.00,,,0.00,meteohub,2013-05-23 01:37:00,
2013-05-22 21:42:00,71.4,65.7,29.85,NW,307,0.0,0.0,82,0.00,,,0.00,meteohub,2013-05-23 01:42:00,
2013-05-22 21:47:00,71.2,65.5,29.86,NW,307,0.0,0.0,82,0.00,,,0.00,meteohub,2013-05-23 01:47:00,
2013-05-22 21:52:00,71.2,65.8,29.86,NW,307,0.0,0.0,83,0.00,,,0.00,meteohub,2013-05-23 01:52:00,
2013-05-22 21:57:00,71.1,65.7,29.86,NW,307,0.0,0.0,83,0.00,,,0.00,meteohub,2013-05-23 01:57:00,
2013-05-22 22:02:00,71.1,66.0,29.86,NW,307,0.0,0.0,84,0.00,,,0.00,meteohub,2013-05-23 02:02:00,
2013-05-22 22:07:00,70.9,66.2,29.86,NW,307,0.0,0.0,85,0.00,,,0.00,meteohub,2013-05-23 02:07:00,
2013-05-22 22:12:00,70.7,66.4,29.86,NW,307,0.0,0.0,86,0.00,,,0.00,meteohub,2013-05-23 02:12:00,
2013-05-22 22:17:00,70.7,66.9,29.86,NW,307,0.0,0.0,88,0.00,,,0.00,meteohub,2013-05-23 02:17:00,
2013-05-22 22:22:00,70.5,66.7,29.86,NW,306,0.0,0.0,88,0.00,,,0.00,meteohub,2013-05-23 02:22:00,
2013-05-22 22:27:00,70.3,66.9,29.86,NW,307,0.0,0.0,89,0.00,,,0.00,meteohub,2013-05-23 02:27:00,
2013-05-22 22:32:00,70.3,66.9,29.86,NW,307,0.0,0.0,89,0.00,,,0.00,meteohub,2013-05-23 02:32:00,
2013-05-22 22:37:00,70.3,67.3,29.86,NW,307,0.0,0.0,90,0.00,,,0.00,meteohub,2013-05-23 02:37:00,
2013-05-22 22:42:00,70.2,67.1,29.86,NW,307,0.0,0.0,90,0.00,,,0.00,meteohub,2013-05-23 02:42:00,
2013-05-22 22:47:00,70.0,66.9,29.86,NW,306,0.0,0.0,90,0.00,,,0.00,meteohub,2013-05-23 02:47:00,
2013-05-22 22:52:00,69.8,67.1,29.87,NW,307,0.0,0.0,91,0.00,,,0.00,meteohub,2013-05-23 02:52:00,
2013-05-22 22:57:00,69.6,66.9,29.86,NW,307,0.0,0.0,91,0.00,,,0.00,meteohub,2013-05-23 02:57:00,
2013-05-22 23:02:00,69.6,66.9,29.87,NW,306,0.0,0.0,91,0.00,,,0.00,meteohub,2013-05-23 03:02:00,
2013-05-22 23:07:00,69.4,67.1,29.87,NW,307,0.0,0.0,92,0.00,,,0.00,meteohub,2013-05-23 03:07:00,
2013-05-22 23:12:00,69.3,66.9,29.87,NW,306,0.0,0.0,92,0.00,,,0.00,meteohub,2013-05-23 03:12:00,
2013-05-22 23:17:00,69.3,66.9,29.87,NW,307,0.0,0.0,92,0.00,,,0.00,meteohub,2013-05-23 03:17:00,
2013-05-22 23:22:00,69.1,66.9,29.87,NW,306,0.0,0.0,93,0.00,,,0.00,meteohub,2013-05-23 03:22:00,
2013-05-22 23:27:00,69.1,66.9,29.87,NW,307,0.0,0.0,93,0.00,,,0.00,meteohub,2013-05-23 03:27:00,
2013-05-22 23:32:00,69.3,67.5,29.87,NW,307,0.0,0.0,94,0.00,,,0.00,meteohub,2013-05-23 03:32:00,
2013-05-22 23:37:00,69.3,67.5,29.87,NW,306,0.0,0.0,94,0.00,,,0.00,meteohub,2013-05-23 03:37:00,
2013-05-22 23:42:00,69.4,67.6,29.87,NW,307,0.0,0.0,94,0.00,,,0.00,meteohub,2013-05-23 03:42:00,
2013-05-22 23:47:00,69.4,67.3,29.86,NW,306,0.0,0.0,93,0.00,,,0.00,meteohub,2013-05-23 03:47:00,
2013-05-22 23:52:00,69.6,67.5,29.86,NW,306,0.0,0.0,93,0.00,,,0.00,meteohub,2013-05-23 03:52:00,
2013-05-22 23:57:00,69.6,67.5,29.86,NW,306,0.0,1.0,93,0.00,,,0.00,meteohub,2013-05-23 03:57:00,